Find Insat 2A

NORAD ID: 22027 Int'l Des: 1992-041 Owner: ISRO Country: IN operational
HEOCIRCULAR

Live Position

Loading 3D Globe...

About Insat 2A

Description loading...

Upcoming Passes

Passes for default location (London). Set your location on the main map for personalized predictions.

Altitude History

Loading altitude history...

Two-Line Element Set

1 22027U 92041A 26110.44142123 -.00000042 00000-0 00000+0 0 9996
2 22027 14.5056 352.2821 0009519 291.9801 255.5057 1.00230967123477
Epoch: Apr 20, 2026 • Age: 15 hours

Current Status

Altitude 35819.9 km
Velocity 3.07 km/s
Sub-Earth Point 12.13°N, 171.48°E
Launch Date Jul 9, 1992
Age 33.7 years
Type other

Technical Details

Classification Payload
Mass 1906.00 kg
Dry Mass 911.00 kg
Total Mass 1906.00 kg
Length 1.70 m
Diameter 1.90 m
Span 23.00 m
Shape Box + Pan + Ant
Manufacturer ISRO
Bus Type I2K
Phase Status In Orbit
Owner/State ISRO/IN

Most Searched